Weather History for Eastover, SC

Change the Weather History Date:

Tuesday, December 25, 2012

  Actual Average Record
Temperature  
Mean Temperature 52 °F -  
Max Temperature 54 °F 53 °F 68 °F (2008)
Min Temperature 50 °F 31 °F 25 °F (2010)
Degree Days  
Heating Degree Days 13    
Growing Degree Days 2 (Base 50)    
Moisture  
Dew Point 50 °F    
Average Humidity 97    
Maximum Humidity 100    
Minimum Humidity 82    
Precipitation  
Precipitation 0.17 in - - ()
Sea Level Pressure  
Sea Level Pressure 30.02 in    
Wind  
Wind Speed 4 mph (ENE)    
Max Wind Speed 9 mph    
Max Gust Speed -    
Visibility 9 miles    
Events Rain    
Averages and records for this station are not official NWS values.
T = Trace of Precipitation, MM = Missing Value Source: NWS Daily Summary

Daily Weather History Graph

Daily Weather History Graph

Search for Another Location

Airport:

Trip Planner

Search our weather history database for the weather conditions in past years. The results will help you decide how hot, cold, wet, or windy it might be!

Date:

Astronomy

Dec. 25, 2012 Rise Set
Actual Time 7:26 AM EST 5:20 PM EST
Civil Twilight 6:58 AM EST 5:48 PM EST
Nautical Twilight 6:27 AM EST 6:19 PM EST
Astronomical Twilight 5:57 AM EST 6:50 PM EST
Moon 3:26 PM EST (12/25) 4:59 AM EST (12/25)
Length of Visible Light 10h 49m
Length of Day
9h 54m
Waxing Gibbous, 93% of the Moon is Illuminated
Dec 25
Waxing Gibbous
Dec 28
Full
Jan 4
Last Quarter
Jan 11
New
Jan 18
First Quarter

Hourly Weather History & Observations

Time (EST) Temp. Dew Point Humidity Pressure Visibility Wind Dir Wind Speed Gust Speed Precip Events Conditions
12:03 AM 50.0 °F 50.0 °F 100% 29.96 in 10.0 mi SSW 5.8 mph - N/A   Overcast
12:48 AM 50.0 °F 50.0 °F 100% 29.96 in 10.0 mi Calm Calm - N/A   Overcast
12:55 AM 50.5 °F 50.2 °F 99% 29.97 in 10.0 mi Calm Calm - N/A   Overcast
1:17 AM 50.0 °F 50.0 °F 100% 29.96 in 9.0 mi Calm Calm - N/A   Overcast
1:55 AM 50.4 °F 50.2 °F 99% 29.97 in 8.0 mi WNW 4.6 mph - N/A   Overcast
2:55 AM 50.7 °F 50.7 °F 100% 29.97 in 6.0 mi WNW 5.8 mph - N/A   Overcast
3:28 AM 51.8 °F 51.8 °F 100% 29.99 in 8.0 mi WNW 4.6 mph - N/A   Overcast
3:30 AM 51.8 °F 51.8 °F 100% 29.99 in 8.0 mi West 5.8 mph - N/A   Overcast
3:38 AM 51.8 °F 51.8 °F 100% 29.99 in 10.0 mi WNW 5.8 mph - N/A   Overcast
3:55 AM 51.1 °F 50.7 °F 99% 29.99 in 10.0 mi WNW 6.9 mph - N/A   Overcast
4:08 AM 51.8 °F 50.0 °F 94% 29.99 in 10.0 mi NNW 3.5 mph - N/A   Overcast
4:55 AM 50.9 °F 50.7 °F 99% 29.99 in 9.0 mi NNW 4.6 mph - N/A   Overcast
5:55 AM 50.7 °F 50.5 °F 99% 30.02 in 10.0 mi Calm Calm - N/A   Overcast
6:05 AM 50.0 °F 50.0 °F 100% 30.02 in 10.0 mi Calm Calm - N/A   Overcast
6:28 AM 50.0 °F 50.0 °F 100% 30.02 in 9.0 mi Calm Calm - N/A   Overcast
6:31 AM 50.0 °F 50.0 °F 100% 30.02 in 9.0 mi NE 3.5 mph - N/A   Overcast
6:42 AM 50.0 °F 50.0 °F 100% 30.03 in 10.0 mi NE 3.5 mph - N/A   Overcast
6:52 AM 50.0 °F 50.0 °F 100% 30.04 in 10.0 mi Calm Calm - N/A   Overcast
6:55 AM 50.5 °F 50.4 °F 99% 30.04 in 10.0 mi Calm Calm - N/A   Overcast
7:24 AM 50.0 °F 50.0 °F 100% 30.05 in 10.0 mi Calm Calm - N/A   Overcast
7:52 AM 50.0 °F 50.0 °F 100% 30.06 in 10.0 mi Calm Calm - N/A   Overcast
7:55 AM 50.5 °F 50.2 °F 99% 30.06 in 10.0 mi Calm Calm - N/A   Overcast
8:34 AM 50.0 °F 50.0 °F 100% 30.06 in 10.0 mi Calm Calm - N/A   Overcast
8:55 AM 50.5 °F 49.8 °F 97% 30.07 in 10.0 mi Calm Calm - N/A   Overcast
9:42 AM 50.0 °F 50.0 °F 100% 30.10 in 10.0 mi Calm Calm - N/A   Overcast
9:55 AM 50.5 °F 49.8 °F 97% 30.09 in 10.0 mi Variable 3.5 mph - N/A   Overcast
10:03 AM 50.0 °F 50.0 °F 100% 30.09 in 10.0 mi East 3.5 mph - N/A   Overcast
10:17 AM 50.0 °F 50.0 °F 100% 30.10 in 10.0 mi East 3.5 mph - N/A   Overcast
10:55 AM 51.3 °F 49.6 °F 94% 30.09 in 10.0 mi East 4.6 mph - N/A   Overcast
11:37 AM 51.8 °F 50.0 °F 94% 30.08 in 10.0 mi ENE 6.9 mph - N/A   Overcast
11:49 AM 51.8 °F 50.0 °F 94% 30.08 in 10.0 mi ENE 4.6 mph - N/A   Overcast
11:55 AM 51.6 °F 49.5 °F 92% 30.08 in 10.0 mi ENE 3.5 mph - N/A   Overcast
12:50 PM 51.8 °F 48.2 °F 88% 30.05 in 10.0 mi East 5.8 mph - N/A   Overcast
12:55 PM 52.0 °F 48.7 °F 89% 30.04 in 10.0 mi East 4.6 mph - N/A   Overcast
1:02 PM 51.8 °F 48.2 °F 88% 30.04 in 10.0 mi Variable 4.6 mph - N/A   Overcast
1:18 PM 53.6 °F 48.2 °F 82% 30.04 in 10.0 mi Variable 6.9 mph - N/A   Overcast
1:55 PM 53.4 °F 48.4 °F 83% 30.04 in 10.0 mi ENE 4.6 mph - N/A   Overcast
2:55 PM 53.8 °F 48.4 °F 82% 30.04 in 10.0 mi ESE 3.5 mph - N/A   Overcast
3:55 PM 54.0 °F 48.7 °F 82% 30.02 in 10.0 mi East 4.6 mph - N/A   Overcast
4:27 PM 53.6 °F 48.2 °F 82% 30.02 in 10.0 mi ESE 5.8 mph - N/A   Mostly Cloudy
4:55 PM 53.1 °F 48.7 °F 85% 30.00 in 10.0 mi ENE 4.6 mph - N/A   Mostly Cloudy
5:55 PM 51.8 °F 48.6 °F 89% 30.01 in 10.0 mi East 3.5 mph - N/A   Partly Cloudy
6:10 PM 51.8 °F 48.2 °F 88% 30.03 in 10.0 mi Calm Calm - N/A   Light Drizzle
6:55 PM 51.1 °F 50.5 °F 98% 30.04 in 8.0 mi Calm Calm - 0.03 in Rain Light Rain
7:38 PM 50.0 °F 50.0 °F 100% 30.10 in 6.0 mi SW 5.8 mph - N/A Rain Light Rain
7:55 PM 50.5 °F 50.4 °F 99% 30.04 in 3.0 mi ENE 8.1 mph - 0.07 in Rain Light Rain
8:24 PM 51.8 °F 51.8 °F 100% 30.03 in 8.0 mi East 4.6 mph - N/A Rain Light Rain
8:33 PM 51.8 °F 51.8 °F 100% 30.03 in 9.0 mi ENE 5.8 mph - N/A Rain Light Rain
8:47 PM 51.8 °F 51.8 °F 100% 30.03 in 6.0 mi ESE 4.6 mph - N/A Rain Light Rain
8:55 PM 51.8 °F 51.4 °F 99% 30.02 in 3.0 mi Calm Calm - 0.07 in Rain Light Rain
8:58 PM 51.8 °F 51.8 °F 100% 30.01 in 4.0 mi ENE 4.6 mph - N/A Rain Light Rain
9:18 PM 51.8 °F 51.8 °F 100% 29.99 in 7.0 mi ENE 5.8 mph - N/A   Overcast
9:20 PM 51.8 °F 51.8 °F 100% 29.99 in 7.0 mi ENE 5.8 mph - N/A   Overcast
9:30 PM 51.8 °F 51.8 °F 100% 29.99 in 9.0 mi East 6.9 mph - N/A   Overcast
9:39 PM 51.8 °F 51.8 °F 100% 29.99 in 10.0 mi East 5.8 mph - N/A   Overcast
9:45 PM 51.8 °F 51.8 °F 100% 29.99 in 10.0 mi East 9.2 mph - N/A   Overcast
9:55 PM 52.0 °F 51.8 °F 99% 29.99 in 10.0 mi East 8.1 mph - 0.00 in   Mostly Cloudy
10:14 PM 51.8 °F 51.8 °F 100% 29.98 in 10.0 mi East 8.1 mph - N/A   Mostly Cloudy
10:38 PM 51.8 °F 51.8 °F 100% 29.97 in 10.0 mi East 6.9 mph - N/A   Mostly Cloudy
10:46 PM 51.8 °F 51.8 °F 100% 29.97 in 10.0 mi East 8.1 mph - N/A   Overcast
10:55 PM 52.0 °F 51.8 °F 99% 29.96 in 10.0 mi East 8.1 mph - N/A   Overcast
11:11 PM 51.8 °F 51.8 °F 100% 29.96 in 10.0 mi East 8.1 mph - N/A   Overcast
11:55 PM 52.3 °F 52.2 °F 99% 29.94 in 10.0 mi East 6.9 mph - N/A   Overcast